EW5670 Weather Reports


time (UTC)temp
F
wind
direction
speed
knots
gust
knots
rain 1hr
in
rain 24hr
in
rain mn
in
humidity
%
barometer
mb
20260506135034 57 47 3.5 8.7 0.00 0.00 0.00 51 1015.0
20260506131036 57 20 3.5 8.7 0.00 0.00 0.00 50 1015.1
20260506130034 57 68 2.6 5.2 0.00 0.00 0.00 52 1015.2
20260506125038 56 49 2.6 6.1 0.00 0.00 0.00 52 1015.1
20260506123034 56 25 3.5 9.6 0.00 0.00 0.00 54 1015.1
20260506122035 56 11 3.5 9.6 0.00 0.00 0.00 55 1015.2
20260506121033 56 330 3.5 8.7 0.00 0.00 0.00 56 1015.2
20260506120034 56 304 2.6 6.1 0.00 0.00 0.00 55 1015.3
20260506115036 56 262 2.6 8.7 0.00 0.00 0.00 55 1015.3
20260506114036 56 37 2.6 7.0 0.00 0.00 0.00 56 1015.4
20260506113039 55 331 2.6 7.0 0.00 0.00 0.00 56 1015.5
20260506112036 55 348 2.6 7.8 0.00 0.00 0.00 56 1015.6
20260506111048 54 6 2.6 7.8 0.00 0.00 0.00 59 1015.7
20260506105034 54 354 1.7 4.3 0.00 0.00 0.00 61 1015.9
20260506103033 53 24 1.7 7.0 0.00 0.00 0.00 64 1015.8
20260506100037 52 53 1.7 8.7 0.00 0.00 0.00 65 1015.9
20260506094034 51 27 2.6 6.1 0.00 0.00 0.00 67 1015.9
20260506093034 50 334 3.5 7.0 0.00 0.00 0.00 67 1015.9
20260506092034 50 51 2.6 7.0 0.00 0.00 0.00 67 1015.9
20260506091034 50 32 2.6 6.1 0.00 0.00 0.00 69 1015.9
20260506085036 49 27 3.5 10.4 0.00 0.00 0.00 69 1016.0
20260506084034 48 332 4.3 11.3 0.00 0.00 0.00 70 1015.9
20260506081035 47 328 2.6 7.8 0.00 0.00 0.00 71 1015.9
20260506073033 46 41 2.6 6.1 0.00 0.00 0.00 74 1015.9
20260506062036 46 27 0.9 3.5 0.00 0.00 0.00 78 1015.5
20260506051032 46 12 1.7 5.2 0.00 0.00 0.00 77 1015.4
20260506045031 46 51 0.9 3.5 0.00 0.00 0.00 77 1015.2
20260506044032 46 13 0.9 4.3 0.00 0.00 0.00 77 1015.1
20260506043028 46 63 1.7 6.1 0.00 0.00 0.00 76 1015.2
20260506042035 46 46 0.9 6.1 0.00 0.00 0.00 76 1015.1
20260506041031 46 23 0.9 3.5 0.00 0.00 0.00 76 1015.1
20260506035030 46 8 1.7 5.2 0.00 0.00 0.00 76 1015.3
20260506034034 46 24 0.9 4.3 0.00 0.00 0.00 76 1015.1
20260506033028 47 351 1.7 3.5 0.00 0.00 0.00 76 1015.1
20260506032026 47 41 1.7 4.3 0.00 0.00 0.00 76 1015.3
20260506025027 47 55 3.5 7.0 0.00 0.00 0.00 75 1015.3
20260506024027 47 14 3.5 7.8 0.00 0.00 0.00 75 1015.4
20260506023020 47 49 2.6 7.0 0.00 0.00 0.00 75 1015.3
20260506022024 47 40 3.5 8.7 0.00 0.00 0.00 74 1015.2
20260506021015 48 41 2.6 7.0 0.00 0.00 0.00 74 1015.2
20260506020015 48 49 2.6 6.1 0.00 0.00 0.00 74 1015.1
20260506015015 48 4 3.5 8.7 0.00 0.00 0.00 74 1015.2
20260506014015 48 354 3.5 10.4 0.00 0.00 0.00 73 1015.3
20260506011015 49 13 0.0 2.6 0.00 0.00 0.00 78 1015.2
20260506010013 49 49 1.7 6.1 0.00 0.00 0.00 78 1015.2
20260506005012 49 20 2.6 5.2 0.00 0.00 0.00 78 1015.1
20260506004013 49 16 1.7 4.3 0.00 0.00 0.00 77 1015.2
20260506002013 49 49 1.7 7.0 0.00 0.00 0.00 76 1015.1
20260506001012 49 48 2.6 7.0 0.00 0.00 0.00 76 1015.0
20260506000013 49 60 2.6 7.8 0.00 0.00 0.00 75 1015.0
20260505235007 50 10 3.5 9.6 0.00 0.00 0.00 74 1015.1
20260505234009 50 49 4.3 9.6 0.00 0.00 0.00 73 1015.0
20260505232008 50 17 4.3 7.8 0.00 0.00 0.00 73 1015.0
20260505231010 51 64 5.2 11.3 0.00 0.00 0.00 73 1015.1
20260505230008 51 51 5.2 12.2 0.00 0.00 0.00 73 1015.1
20260505222006 52 23 1.7 5.2 0.00 0.00 0.00 76 1015.0
20260505221005 52 60 1.7 7.0 0.00 0.00 0.00 75 1014.9
20260505215005 52 7 4.3 8.7 0.00 0.00 0.00 74 1014.8
20260505214006 53 98 5.2 13.0 0.00 0.00 0.00 74 1014.8
20260505213006 53 39 4.3 10.4 0.00 0.00 0.00 74 1014.8
20260505210006 53 19 1.7 7.0 0.00 0.00 0.00 72 1014.8
20260505205006 53 34 0.9 3.5 0.00 0.00 0.00 73 1014.6
20260505204006 53 8 0.0 2.6 0.00 0.00 0.00 73 1014.5
20260505203006 53 320 0.9 2.6 0.00 0.00 0.00 73 1014.5
20260505202006 53 309 0.9 3.5 0.00 0.00 0.00 73 1014.4
20260505201006 54 327 0.9 1.7 0.00 0.00 0.00 72 1014.4
20260505200006 54 336 0.9 3.5 0.00 0.00 0.00 72 1014.3
20260505195014 54 288 0.9 4.3 0.00 0.00 0.00 72 1014.2
20260505194006 54 314 0.9 3.5 0.00 0.00 0.00 72 1014.1
20260505192006 55 331 1.7 5.2 0.00 0.00 0.00 70 1014.0
20260505191005 55 321 0.9 5.2 0.00 0.00 0.00 69 1014.1
20260505190006 55 331 0.9 4.3 0.00 0.00 0.00 68 1013.9
20260505184006 56 323 1.7 6.1 0.00 0.00 0.00 66 1013.7
20260505183008 56 331 1.7 7.8 0.00 0.00 0.00 66 1013.6
20260505182007 56 344 1.7 5.2 0.00 0.00 0.00 65 1013.7
20260505180008 57 351 1.7 5.2 0.00 0.00 0.00 64 1013.7
20260505174006 57 287 1.7 7.0 0.00 0.00 0.00 63 1013.7
20260505173033 57 302 1.7 5.2 0.00 0.00 0.00 63 1013.7
20260505172007 57 307 1.7 7.0 0.00 0.00 0.00 64 1013.8
20260505171006 57 276 2.6 7.0 0.00 0.00 0.00 63 1013.8
20260505170006 57 321 3.5 7.8 0.00 0.00 0.00 63 1013.9
20260505165006 58 345 3.5 7.8 0.00 0.00 0.00 62 1013.8
20260505164005 58 347 4.3 10.4 0.00 0.00 0.00 63 1013.8
20260505163009 58 18 2.6 7.8 0.00 0.00 0.00 63 1013.8
20260505161006 58 315 3.5 7.8 0.00 0.00 0.00 61 1013.7
20260505153006 59 63 1.7 7.8 0.00 0.00 0.00 59 1013.8
20260505152005 59 300 2.6 6.1 0.00 0.00 0.00 59 1013.9